CST,Max TemperatureF,Mean TemperatureF,Min TemperatureF,Max Dew PointF,MeanDew PointF,Min DewpointF,Max Humidity, Mean Humidity, Min Humidity, Max Sea Level PressureIn, Mean Sea Level PressureIn, Min Sea Level PressureIn, Max VisibilityMiles, Mean VisibilityMiles, Min VisibilityMiles, Max Wind SpeedMPH, Mean Wind SpeedMPH, Max Gust SpeedMPH,PrecipitationIn, CloudCover, Events, WindDirDegrees
2012-11-1,89,78,68,68,62,54,88,65,31,30.06,29.99,29.94,10,10,10,14,6,22,0.00,1,Thunderstorm,144
2012-11-2,89,76,64,66,61,52,88,62,27,30.02,29.97,29.90,10,10,10,16,6,26,0.00,1,Thunderstorm,159
2012-11-3,91,80,68,68,63,50,88,65,29,30.04,29.97,29.92,10,10,10,18,7,25,0.00,1,,153
2012-11-4,86,77,66,70,65,59,88,72,48,30.08,30.03,29.98,10,10,10,15,4,21,0.00,2,Rain-Thunderstorm,134
2012-11-5,89,76,62,66,60,57,88,54,33,30.06,29.99,29.94,10,10,7,10,4,,0.00,0,,175
2012-11-6,87,76,64,63,56,50,73,48,30,30.13,30.09,30.04,10,10,7,14,9,21,0.00,0,,75
2012-11-7,89,74,60,59,53,45,82,48,21,30.17,30.10,30.03,10,10,7,12,4,20,0.00,0,,145
2012-11-8,87,74,62,63,58,54,83,62,33,30.13,30.06,30.00,10,10,7,21,8,30,0.00,0,,155
2012-11-9,86,75,64,63,59,54,88,60,33,30.06,30.01,29.95,10,10,10,24,10,32,0.00,,,150
2012-11-10,87,76,66,64,61,57,78,63,35,30.02,29.94,29.88,10,10,10,24,10,34,0.00,,,150
2012-11-11,86,78,71,66,64,61,78,63,43,30.04,29.89,29.83,10,10,10,26,13,33,0.00,,,157
2012-11-12,71,66,59,64,45,32,88,49,23,30.39,30.26,30.05,10,10,7,24,8,33,0.00,7,,16
2012-11-13,68,62,55,52,44,30,77,54,34,30.38,30.31,30.22,10,9,5,15,8,18,0.00,8,,2
2012-11-14,69,63,57,52,46,39,72,55,45,30.34,30.28,30.25,10,9,7,12,8,18,0.00,8,,7
2012-11-15,71,66,60,61,49,36,88,58,39,30.26,30.20,30.13,10,9,5,10,5,,0.01,8,Rain,29
2012-11-16,71,66,62,63,57,48,94,71,53,30.30,30.23,30.16,10,10,7,17,6,22,0.01,,Rain,37
2012-11-17,75,65,55,52,49,46,82,58,41,30.33,30.27,30.23,10,10,10,10,5,,0.00,,,44
2012-11-18,78,64,51,55,52,50,94,65,39,30.26,30.20,30.14,10,10,10,12,3,17,0.00,,,111
2012-11-19,82,71,60,57,56,54,82,61,39,30.23,30.17,30.10,10,10,10,13,3,16,0.00,,,104
2012-11-20,84,70,55,61,57,54,94,64,35,30.22,30.16,30.10,10,10,7,12,2,,0.00,,,78
2012-11-21,78,68,57,63,57,54,94,71,42,30.25,30.19,30.14,10,9,1,14,2,18,0.00,,,93
2012-11-22,80,68,57,59,56,54,88,71,42,30.17,30.14,30.10,10,10,10,14,3,18,0.00,,,133
2012-11-23,82,71,60,63,60,55,94,66,45,30.31,30.20,30.14,10,10,5,20,6,28,0.42,,Rain-Thunderstorm,67
2012-11-24,68,64,60,59,52,46,94,69,46,30.35,30.28,30.21,10,10,10,13,8,22,0.01,,Rain,350
2012-11-25,,,,,,,,,,,,,,,,,,,,,,
2012-11-26,86,75,64,64,62,59,88,63,40,30.10,30.00,29.92,10,10,5,21,11,29,0.00,,,173
2012-11-27,73,65,55,64,53,46,88,63,38,30.34,30.23,30.04,10,10,10,17,6,23,0.00,,Rain,3
2012-11-28,75,62,50,55,50,45,88,69,41,30.41,30.31,30.24,10,10,7,8,4,,0.00,,,30
2012-11-29,78,66,53,63,57,52,94,74,44,30.24,30.16,30.09,10,9,5,10,2,,0.00,,,96
2012-11-30,86,75,64,68,63,57,94,72,37,30.15,30.09,30.02,10,9,4,12,3,16,0.00,,Rain,154